Change the Weather History Date:

Monday, February 25, 2013

  Actual Average Record
Temperature  
Mean Temperature 36 °F -  
Max Temperature 41 °F - - ()
Min Temperature 30 °F - - ()
Degree Days  
Heating Degree Days 30    
Moisture  
Dew Point 31 °F    
Average Humidity 84    
Maximum Humidity 93    
Minimum Humidity 65    
Precipitation  
Precipitation 0.00 in - - ()
Sea Level Pressure  
Sea Level Pressure 30.48 in    
Wind  
Wind Speed 11 mph ()    
Max Wind Speed 21 mph    
Max Gust Speed -    
Visibility 6.2 miles    
Events      
T = Trace of Precipitation, MM = Missing Value Source: Averaged Metar Reports

Daily Weather History Graph

Daily Weather History Graph

Search for Another Location

Airport or City:

Trip Planner

Search our weather history database for the weather conditions in past years. The results will help you decide how hot, cold, wet, or windy it might be!

Date:

Astronomy

Feb. 25, 2013 Rise Set
Actual Time 7:09 AM GMT 5:37 PM GMT
Civil Twilight 6:32 AM GMT 6:14 PM GMT
Nautical Twilight 5:50 AM GMT 6:56 PM GMT
Astronomical Twilight 5:08 AM GMT 7:38 PM GMT
Moon 5:44 PM GMT (2/25) 6:28 AM GMT (2/25)
Length of Visible Light 11h 41m
Length of Day
10h 28m
Full, 100% of the Moon is Illuminated
Feb 25
Full
Feb 25
Full
Mar 4
Last Quarter
Mar 11
New
Mar 19
First Quarter

Hourly Weather History & Observations

Time (GMT) Temp. Windchill Dew Point Humidity Pressure Visibility Wind Dir Wind Speed Gust Speed Precip Events Conditions
12:50 AM 30.2 °F 21.3 °F 28.4 °F 93% 30.42 in 6.2 mi NNE 10.4 mph - N/A   Mostly Cloudy
1:50 AM 32.0 °F 25.6 °F 28.4 °F 87% 30.42 in 6.2 mi NE 6.9 mph - N/A   Mostly Cloudy
2:50 AM 30.2 °F 21.9 °F 28.4 °F 93% 30.42 in 6.2 mi NE 9.2 mph - N/A   Scattered Clouds
3:50 AM 30.2 °F 23.4 °F 28.4 °F 93% 30.42 in 6.2 mi ENE 6.9 mph - N/A   Mostly Cloudy
4:50 AM 33.8 °F 27.7 °F 30.2 °F 87% 30.42 in 6.2 mi NNE 6.9 mph - N/A   Scattered Clouds
5:50 AM 33.8 °F 25.8 °F 32.0 °F 93% 30.42 in 6.2 mi NE 10.4 mph - N/A   Overcast
6:50 AM 33.8 °F 27.0 °F 30.2 °F 87% 30.45 in 6.2 mi NE 8.1 mph - N/A   Mostly Cloudy
7:50 AM 32.0 °F 23.6 °F 30.2 °F 93% 30.45 in 6.2 mi NNE 10.4 mph - N/A   Unknown
8:50 AM 33.8 °F 25.8 °F 30.2 °F 87% 30.48 in 6.2 mi NNE 10.4 mph - N/A   Partly Cloudy
9:50 AM 37.4 °F 29.3 °F 32.0 °F 81% 30.48 in - NE 12.7 mph - N/A   Clear
10:50 AM 39.2 °F 31.6 °F 32.0 °F 75% 30.48 in 6.2 mi NNE 12.7 mph - N/A   Partly Cloudy
11:50 AM 41.0 °F 33.1 °F 30.2 °F 65% 30.48 in 6.2 mi NE 15.0 mph - N/A   Partly Cloudy
12:50 PM 41.0 °F 31.6 °F 30.2 °F 65% 30.48 in 6.2 mi ENE 20.7 mph - N/A   Partly Cloudy
1:50 PM 41.0 °F 31.6 °F 32.0 °F 70% 30.48 in 6.2 mi ENE 20.7 mph - N/A   Mostly Cloudy
2:50 PM 41.0 °F 31.6 °F 32.0 °F 70% 30.48 in 6.2 mi ENE 20.7 mph - N/A   Scattered Clouds
3:50 PM 41.0 °F 33.1 °F 33.8 °F 76% 30.51 in 6.2 mi NE 15.0 mph - N/A   Mostly Cloudy
4:50 PM 39.2 °F 30.5 °F 32.0 °F 75% 30.48 in 6.2 mi NE 16.1 mph - N/A   Scattered Clouds
5:50 PM 37.4 °F 28.2 °F 32.0 °F 81% 30.51 in 6.2 mi ENE 16.1 mph - N/A   Mostly Cloudy
6:50 PM 35.6 °F 25.5 °F 32.0 °F 87% 30.51 in 6.2 mi ENE 17.3 mph - N/A   Mostly Cloudy
7:50 PM 35.6 °F 24.8 °F 32.0 °F 87% 30.54 in 6.2 mi ENE 19.6 mph - N/A   Overcast
8:50 PM 35.6 °F 26.2 °F 32.0 °F 87% 30.54 in 6.2 mi ENE 15.0 mph - N/A   Overcast
9:50 PM 33.8 °F 23.9 °F 32.0 °F 93% 30.54 in 6.2 mi NE 15.0 mph - N/A   Scattered Clouds
10:50 PM 33.8 °F 23.9 °F 32.0 °F 93% 30.54 in 6.2 mi NE 15.0 mph - N/A   Mostly Cloudy
11:50 PM 33.8 °F 23.9 °F 32.0 °F 93% 30.54 in 6.2 mi ENE 15.0 mph - N/A   Overcast